Location: Unspecified
(0.0000°N, 0.0000°E)
Time: 13:17:15
(UTC+02:00)

SWIFT - Visible Passes

Search period start: 01 September 2014 00:00
Search period end: 11 September 2014 00:00
Orbit: 560 x 578 km, 20.6° (Epoch: 31 August)

Date Brightness Start Highest point End Pass type
(mag) Time Alt. Az. Time Alt. Az. Time Alt. Az.
01 Sep 2.2 06:43:01 47° WSW 06:44:10 83° NNW 06:48:26 10° ENE visible
01 Sep 4.5 20:23:03 10° WSW 20:26:15 20° SSW 20:29:26 10° SSE visible
02 Sep 2.6 06:42:34 43° WNW 06:43:32 54° NNW 06:47:42 10° NE visible
02 Sep 4.8 20:23:17 10° SW 20:25:42 15° SSW 20:28:08 10° SSE visible
03 Sep 3.2 06:42:07 33° NW 06:42:54 36° NNW 06:46:50 10° NE visible
03 Sep 5.0 20:24:07 10° SSW 20:25:12 11° SSW 20:26:17 10° S visible
04 Sep 3.7 06:41:38 24° NW 06:42:17 25° NNW 06:45:50 10° NE visible
05 Sep 4.2 06:41:08 18° NNW 06:41:42 18° NNW 06:44:40 10° NNE visible
06 Sep 4.5 06:40:36 13° NNW 06:41:09 13° NNW 06:43:14 10° NNE visible
